[[{"header":{"parameterUnit":"m.s-1","parameterCategory":1,"la1":30.2992,"la2":30.254,"lo1":-89.0895,"lo2":-89.0443,"dy":0.0025,"dx":0.0025,"nx":19,"ny":19,"refTime":"2026-04-11T03:00:00:Z","depth":0,"parameterNumber":2,"parameterNumberName":"U-component_of_WINDS"},"data":[0,0,0,-2.4014,-2.4014,-2.4007,-2.4007,-2.4022,-2.4022,0,0,0,0,0,0,0,0,0,0,0,-2.403,-2.403,-2.4014,-2.4014,-2.4007,-2.4007,-2.4022,-2.4022,0,0,0,0,0,0,0,0,0,0,0,-2.4029,-2.403,-2.4031,-2.4014,-2.4007,-2.4007,-2.4022,-2.4019,0,0,0,0,0,0,0,0,0,0,-2.4022,-2.4049,-2.403,-2.4031,-2.4014,-2.4007,-2.4007,-2.4018,-2.4019,-2.4035,0,-2.4052,0,-2.4037,-2.4025,-2.4025,0,0,0,-2.4004,-2.4048,-2.4034,-2.4031,-2.4015,-2.4008,-2.4008,-2.4018,-2.4019,-2.4036,-2.4052,-2.4052,-2.4038,-2.4025,-2.4025,-2.4149,-2.415,0,0,-2.4005,-2.4036,-2.4034,-2.4035,-2.4037,-2.4008,-2.4008,-2.4019,-2.4038,-2.4052,-2.4052,-2.4038,-2.4025,-2.4025,-2.4148,-2.4149,0,0,0,-2.4013,-2.4036,-2.4021,-2.4035,-2.4032,-2.4008,-2.4008,-2.4037,-2.403,-2.4052,-2.4038,-2.4025,-2.4026,-2.4147,-2.4148,-2.4229,0,0,0,-2.4012,-2.4041,-2.4022,-2.4041,-2.4033,-2.4035,-2.4027,-2.4029,-2.403,-2.4038,-2.4025,-2.4026,-2.4145,-2.4147,-2.4224,-2.4262,0,0,0,-2.4025,-2.4042,-2.4046,-2.4043,-2.4041,-2.4034,-2.4027,-2.4029,-2.4022,-2.4025,-2.4026,-2.4145,-2.4147,-2.422,-2.4255,-2.4304,0,0,0,-2.4048,-2.4117,-2.4047,-2.4119,-2.4041,-2.4084,-2.4026,-2.4057,-2.4069,-2.4026,-2.4145,-2.4148,-2.4219,-2.4251,-2.43,-2.4351,-2.4375,0,0,-2.4152,-2.4131,-2.4171,-2.4108,-2.4171,-2.4083,-2.4158,-2.414,-2.4113,-2.4139,-2.4141,-2.4226,-2.4255,-2.4303,-2.4499,-2.4519,0,0,0,-2.4214,-2.4244,-2.4254,-2.4267,-2.4255,-2.4248,-2.4216,-2.421,-2.423,-2.4132,-2.4256,-2.4272,-2.4299,-2.4322,-2.4339,-2.436,-2.416,-2.416,-2.4159,-2.4405,-2.4367,-2.4431,-2.4392,-2.4406,-2.4372,-2.438,-2.4366,-2.4323,-2.4353,-2.436,-2.4484,-2.4512,-2.4524,-2.4547,-2.4384,-2.4384,-2.4385,-2.4385,-2.4554,-2.459,-2.4532,-2.4573,-2.4533,-2.4567,-2.4539,-2.4507,-2.4534,-2.4475,-2.4497,-2.4435,-2.4546,-2.4565,-2.4391,-2.439,-2.4389,-2.4388,-2.4388,-2.4675,-2.4685,-2.4676,-2.4692,-2.471,-2.4668,-2.4697,-2.4659,-2.4624,-2.4646,-2.465,-2.4648,-2.4642,-2.465,-2.4651,-2.4651,-2.4652,-2.4652,-2.4652,-2.4803,-2.4791,-2.4819,-2.4814,-2.4818,-2.4819,-2.4788,-2.4791,-2.4786,-2.4756,-2.4756,-2.471,-2.4564,-2.4529,-2.4659,-2.4658,-2.4657,-2.4656,-2.4656,-2.4968,-2.4925,-2.4969,-2.4974,-2.4965,-2.4986,-2.4937,-2.4948,-2.4945,-2.4961,-2.4912,-2.481,-2.4785,-2.4772,-2.4742,-2.4919,-2.4919,-2.4919,-2.4919,-2.507,-2.5054,-2.5091,-2.5101,-2.5106,-2.5068,-2.5121,-2.5098,-2.5068,-2.5065,-2.5034,-2.4991,-2.4979,-2.4961,-2.4944,-2.4915,-2.5133,-2.5133,-2.5133,-2.5169,-2.5153,-2.5204,-2.5174,-2.5165,-2.5159,-2.5208,-2.5223,-2.5179,-2.5141,-2.5061,-2.5052,-2.4983,-2.4962,-2.4921,-2.4895,-2.4841,0,0]},{"header":{"parameterUnit":"m.s-1","parameterCategory":1,"la1":30.2992,"la2":30.254,"lo1":-89.0895,"lo2":-89.0443,"dy":0.0025,"dx":0.0025,"nx":19,"ny":19,"refTime":"2026-04-11T03:00:00:Z","depth":0,"parameterNumber":3,"parameterNumberName":"V-component_of_WINDS"},"data":[0,0,0,3.1376,3.1378,3.1464,3.1465,3.1567,3.1568,0,0,0,0,0,0,0,0,0,0,0,3.1346,3.1347,3.1376,3.1378,3.1464,3.1465,3.1567,3.1568,0,0,0,0,0,0,0,0,0,0,0,3.1346,3.1347,3.1348,3.1378,3.1464,3.1465,3.1566,3.1504,0,0,0,0,0,0,0,0,0,0,3.1421,3.139,3.1347,3.1348,3.1379,3.1464,3.1465,3.1501,3.1508,3.1524,0,3.1539,0,3.1555,3.1574,3.1574,0,0,0,3.1381,3.1384,3.1412,3.1348,3.138,3.1464,3.1426,3.1505,3.1513,3.1533,3.154,3.1544,3.1557,3.1575,3.1575,3.1665,3.1665,0,0,3.1376,3.1359,3.1406,3.1416,3.1404,3.1423,3.1429,3.151,3.1516,3.1541,3.1547,3.1558,3.1575,3.1576,3.1665,3.1665,0,0,0,3.136,3.1356,3.1381,3.1412,3.1428,3.1426,3.1432,3.1512,3.1522,3.1548,3.156,3.1576,3.1577,3.1664,3.1665,3.1664,0,0,0,3.1358,3.1347,3.1379,3.137,3.1427,3.1472,3.1433,3.1516,3.1526,3.1559,3.1576,3.1578,3.1664,3.1665,3.1663,3.1665,0,0,0,3.1342,3.1345,3.1356,3.1369,3.1405,3.1471,3.1485,3.1519,3.1533,3.1574,3.1578,3.1664,3.1665,3.1662,3.1664,3.1684,0,0,0,3.132,3.1353,3.1356,3.1397,3.1405,3.147,3.1485,3.1534,3.1569,3.1576,3.1664,3.1665,3.1662,3.1664,3.1683,3.1697,3.1702,0,0,3.1352,3.1356,3.1382,3.1387,3.1448,3.1458,3.1518,3.1566,3.1584,3.1637,3.1639,3.1663,3.1664,3.1684,3.1734,3.1737,0,0,0,3.1386,3.1404,3.1424,3.1458,3.1496,3.1529,3.1569,3.1587,3.1633,3.1608,3.1677,3.1678,3.169,3.1697,3.17,3.1712,3.1668,3.1668,3.1668,3.1406,3.143,3.1474,3.1508,3.1541,3.1583,3.1611,3.1642,3.1655,3.1671,3.1686,3.1714,3.1722,3.1724,3.1736,3.1696,3.1696,3.1696,3.1696,3.1455,3.1484,3.1502,3.1552,3.1576,3.1617,3.166,3.1668,3.1709,3.1704,3.1716,3.1708,3.1727,3.1739,3.1697,3.1697,3.1697,3.1697,3.1697,3.1469,3.1488,3.151,3.1563,3.16,3.1634,3.1673,3.1694,3.1714,3.1726,3.1744,3.1744,3.1746,3.1733,3.1733,3.1734,3.1734,3.1734,3.1734,3.1476,3.1501,3.1533,3.1577,3.1603,3.1638,3.1682,3.1707,3.174,3.1752,3.1752,3.1763,3.1726,3.1715,3.1735,3.1735,3.1735,3.1735,3.1735,3.1514,3.1509,3.1558,3.1583,3.1638,3.1674,3.1701,3.1751,3.1774,3.1793,3.1803,3.1772,3.1777,3.1774,3.1766,3.1798,3.1798,3.1798,3.1798,3.1526,3.1532,3.1586,3.1626,3.1667,3.1697,3.175,3.1785,3.182,3.1836,3.1835,3.1826,3.1823,3.183,3.1826,3.1819,3.1863,3.1864,3.1864,3.1551,3.1562,3.1603,3.1639,3.1684,3.1722,3.1773,3.1817,3.1856,3.1867,3.1849,3.1847,3.1832,3.1826,3.1835,3.1829,3.1816,0,0]}]]